CES9834 ZGGG-ZLLL

Flight info

Callsign CES9834
Flight time 2h 54m
Altitude 34100
Route AGVIL W24 OSNOV G586 QP B330 ELKAL W179 OMBON W195 ORUNA
Aircraft A20N/M-SDE3FGHIRWYZ/LB1

Departure

Time 2026-04-15 06:15
Airport Guangzhou Baiyun International Airport (ZGGG)

Arrival

Time 2026-04-15 09:10
Airport Lanzhou Zhongchuan International Airport (ZLLL)
Time Latitude Longitude Altitude Speed Heading
2026-04-15 05:46 23.37105 113.31804 65 ft 0 kts 311°
2026-04-15 06:00 23.37102 113.31807 65 ft 2 kts 311°
2026-04-15 06:00 23.37092 113.31821 65 ft 3 kts 311°
2026-04-15 06:00 23.37079 113.31837 65 ft 3 kts 311°
2026-04-15 06:00 23.37066 113.31853 65 ft 3 kts 311°
2026-04-15 06:01 23.37052 113.31870 64 ft 3 kts 311°
2026-04-15 06:01 23.37039 113.31887 64 ft 3 kts 311°
2026-04-15 06:01 23.37024 113.31903 64 ft 3 kts 323°
2026-04-15 06:01 23.37008 113.31913 64 ft 0 kts 334°
2026-04-15 06:05 23.37009 113.31913 64 ft 0 kts 334°
2026-04-15 06:07 23.37031 113.31912 64 ft 6 kts 12°
2026-04-15 06:07 23.37080 113.31950 64 ft 10 kts 51°
2026-04-15 06:08 23.37123 113.32008 64 ft 10 kts 51°
2026-04-15 06:08 23.37142 113.32031 64 ft 0 kts 43°
2026-04-15 06:09 23.37150 113.32041 64 ft 5 kts 54°
2026-04-15 06:10 23.37152 113.32096 64 ft 8 kts 88°
2026-04-15 06:10 23.37178 113.32126 64 ft 10 kts 21°
2026-04-15 06:10 23.37259 113.32149 64 ft 14 kts 14°
2026-04-15 06:10 23.37369 113.32179 64 ft 18 kts 14°
2026-04-15 06:11 23.37507 113.32216 64 ft 22 kts 14°
2026-04-15 06:11 23.37564 113.32294 64 ft 9 kts 75°
2026-04-15 06:11 23.37607 113.32318 64 ft 12 kts 14°
2026-04-15 06:11 23.37711 113.32346 64 ft 18 kts 14°
2026-04-15 06:12 23.37839 113.32381 64 ft 20 kts 14°
2026-04-15 06:12 23.37984 113.32419 64 ft 23 kts 14°
2026-04-15 06:12 23.38145 113.32462 64 ft 24 kts 14°
2026-04-15 06:12 23.38305 113.32505 64 ft 23 kts 14°
2026-04-15 06:13 23.38459 113.32546 64 ft 22 kts 14°
2026-04-15 06:13 23.38607 113.32586 64 ft 19 kts 14°
2026-04-15 06:13 23.38659 113.32630 64 ft 8 kts 97°
2026-04-15 06:13 23.38644 113.32692 64 ft 10 kts 105°
2026-04-15 06:14 23.38614 113.32757 65 ft 11 kts 159°
2026-04-15 06:14 23.38556 113.32747 65 ft 7 kts 193°
2026-04-15 06:14 23.38549 113.32745 65 ft 1 kts 193°
2026-04-15 06:14 23.38410 113.32709 65 ft 49 kts 194°
2026-04-15 06:15 23.37858 113.32559 65 ft 113 kts 194°
2026-04-15 06:15 23.36932 113.32308 67 ft 163 kts 194°
2026-04-15 06:15 23.35795 113.32000 467 ft 170 kts 194°
2026-04-15 06:15 23.34619 113.31972 1069 ft 173 kts 162°
2026-04-15 06:16 23.33556 113.32525 1779 ft 173 kts 153°
2026-04-15 06:16 23.32398 113.33198 2052 ft 202 kts 151°
2026-04-15 06:16 23.31095 113.33982 2451 ft 223 kts 150°
2026-04-15 06:16 23.29724 113.34851 3138 ft 232 kts 146°
2026-04-15 06:17 23.28572 113.36106 3859 ft 239 kts 122°
2026-04-15 06:17 23.27932 113.37784 4641 ft 242 kts 107°
2026-04-15 06:17 23.27458 113.39518 5481 ft 243 kts 104°
2026-04-15 06:17 23.27005 113.41285 6407 ft 241 kts 103°
2026-04-15 06:18 23.26663 113.43057 7323 ft 240 kts 94°
2026-04-15 06:18 23.26838 113.44860 8057 ft 245 kts 73°
2026-04-15 06:18 23.27489 113.46610 8750 ft 254 kts 66°
2026-04-15 06:18 23.28225 113.48375 9506 ft 260 kts 64°
2026-04-15 06:19 23.28991 113.50177 10259 ft 266 kts 63°
2026-04-15 06:19 23.30026 113.51946 10428 ft 293 kts 44°
2026-04-15 06:19 23.31831 113.53124 10740 ft 314 kts 19°
2026-04-15 06:19 23.33970 113.53665 11326 ft 326 kts 12°
2026-04-15 06:20 23.36235 113.54141 11675 ft 335 kts 11°
2026-04-15 06:20 23.38539 113.54609 11768 ft 337 kts 11°
2026-04-15 06:20 23.40848 113.55074 11791 ft 337 kts 11°
2026-04-15 06:20 23.43147 113.55537 11797 ft 337 kts 11°
2026-04-15 06:21 23.45473 113.55928 11795 ft 337 kts
2026-04-15 06:21 23.47806 113.55614 11796 ft 340 kts 344°
2026-04-15 06:21 23.49877 113.54356 11802 ft 346 kts 324°
2026-04-15 06:21 23.51645 113.52618 11802 ft 347 kts 320°
2026-04-15 06:22 23.53398 113.50793 11799 ft 347 kts 319°
2026-04-15 06:22 23.55139 113.48966 11799 ft 346 kts 319°
2026-04-15 06:22 23.56871 113.47147 11799 ft 346 kts 319°
2026-04-15 06:22 23.58617 113.45317 11799 ft 346 kts 319°
2026-04-15 06:23 23.60328 113.43522 11799 ft 346 kts 319°
2026-04-15 06:23 23.62065 113.41702 11799 ft 346 kts 319°
2026-04-15 06:23 23.63803 113.39880 11799 ft 346 kts 319°
2026-04-15 06:23 23.65536 113.38063 11799 ft 346 kts 319°
2026-04-15 06:24 23.67273 113.36241 11799 ft 346 kts 319°
2026-04-15 06:24 23.69005 113.34418 11799 ft 346 kts 319°
2026-04-15 06:24 23.70737 113.32597 11799 ft 346 kts 319°
2026-04-15 06:24 23.72480 113.30766 12130 ft 349 kts 319°
2026-04-15 06:25 23.74236 113.28925 12996 ft 351 kts 319°
2026-04-15 06:25 23.75999 113.27080 13843 ft 352 kts 318°
2026-04-15 06:25 23.77775 113.25223 14656 ft 353 kts 317°
2026-04-15 06:25 23.79548 113.23362 15420 ft 355 kts 317°
2026-04-15 06:26 23.81334 113.21485 16142 ft 357 kts 316°
2026-04-15 06:26 23.83134 113.19593 16824 ft 360 kts 316°
2026-04-15 06:26 23.84951 113.17684 17469 ft 364 kts 315°
2026-04-15 06:26 23.86784 113.15756 18079 ft 367 kts 315°
2026-04-15 06:27 23.88633 113.13808 18653 ft 372 kts 314°
2026-04-15 06:27 23.90507 113.11833 19197 ft 376 kts 314°
2026-04-15 06:27 23.92398 113.09837 19715 ft 381 kts 313°
2026-04-15 06:27 23.94309 113.07819 20261 ft 383 kts 313°
2026-04-15 06:28 23.96233 113.05787 20583 ft 384 kts 313°
2026-04-15 06:28 23.98140 113.03749 20668 ft 382 kts 310°
2026-04-15 06:28 23.99533 113.01359 20890 ft 380 kts 290°
2026-04-15 06:28 24.00349 112.98609 21495 ft 379 kts 285°
2026-04-15 06:29 24.01105 112.95850 22126 ft 378 kts 286°
2026-04-15 06:29 24.01912 112.93111 22734 ft 377 kts 287°
2026-04-15 06:29 24.02737 112.90398 23310 ft 376 kts 288°
2026-04-15 06:29 24.03567 112.87691 23860 ft 375 kts 288°
2026-04-15 06:30 24.04396 112.84995 24384 ft 374 kts 288°
2026-04-15 06:30 24.05226 112.82296 24887 ft 373 kts 288°
2026-04-15 06:30 24.06053 112.79611 25359 ft 372 kts 288°
2026-04-15 06:30 24.06871 112.76960 25766 ft 373 kts 289°
2026-04-15 06:31 24.07707 112.74256 26142 ft 375 kts 289°
2026-04-15 06:31 24.08545 112.71551 26496 ft 377 kts 289°
2026-04-15 06:31 24.09528 112.68881 26827 ft 379 kts 297°
2026-04-15 06:31 24.10923 112.66422 27190 ft 381 kts 302°
2026-04-15 06:32 24.12379 112.63989 27504 ft 384 kts 301°
2026-04-15 06:32 24.13807 112.61515 27820 ft 386 kts 301°
2026-04-15 06:32 24.15230 112.59009 28137 ft 388 kts 301°
2026-04-15 06:32 24.16651 112.56490 28450 ft 390 kts 301°
2026-04-15 06:33 24.18078 112.53957 28757 ft 392 kts 301°
2026-04-15 06:33 24.19514 112.51405 29060 ft 394 kts 301°
2026-04-15 06:33 24.20955 112.48840 29358 ft 396 kts 301°
2026-04-15 06:33 24.22401 112.46265 29666 ft 398 kts 301°
2026-04-15 06:34 24.23856 112.43670 30003 ft 398 kts 301°
2026-04-15 06:34 24.25308 112.41080 30354 ft 399 kts 301°
2026-04-15 06:34 24.27975 112.36319 31014 ft 398 kts 301°
2026-04-15 06:35 24.29425 112.33730 31374 ft 398 kts 302°
2026-04-15 06:35 24.30855 112.31175 31726 ft 398 kts 302°
2026-04-15 06:35 24.32299 112.28594 32078 ft 397 kts 302°
2026-04-15 06:35 24.33742 112.26013 32424 ft 396 kts 302°
2026-04-15 06:36 24.35183 112.23435 32763 ft 396 kts 302°
2026-04-15 06:36 24.36620 112.20864 33094 ft 395 kts 302°
2026-04-15 06:36 24.38052 112.18299 33418 ft 394 kts 302°
2026-04-15 06:36 24.39481 112.15739 33735 ft 394 kts 302°
2026-04-15 06:37 24.40910 112.13177 34000 ft 393 kts 302°
2026-04-15 06:37 24.43752 112.08080 34092 ft 389 kts 302°
2026-04-15 06:38 24.46575 112.03014 34098 ft 388 kts 302°
2026-04-15 06:38 24.49377 111.97978 34099 ft 388 kts 302°
2026-04-15 06:39 24.52188 111.92917 34099 ft 388 kts 302°
2026-04-15 06:39 24.54998 111.87851 34099 ft 388 kts 302°
2026-04-15 06:40 24.57806 111.82783 34099 ft 388 kts 302°
2026-04-15 06:40 24.60615 111.77708 34099 ft 388 kts 302°
2026-04-15 06:41 24.63420 111.72634 34099 ft 388 kts 302°
2026-04-15 06:41 24.66226 111.67554 34099 ft 388 kts 302°
2026-04-15 06:42 24.69027 111.62477 34099 ft 388 kts 302°
2026-04-15 06:42 24.71810 111.57429 34099 ft 388 kts 302°
2026-04-15 06:43 24.74609 111.52344 34099 ft 388 kts 302°
2026-04-15 06:43 24.77409 111.47254 34099 ft 388 kts 302°
2026-04-15 06:44 24.80204 111.42165 34099 ft 388 kts 302°
2026-04-15 06:44 24.82983 111.37101 34099 ft 388 kts 302°
2026-04-15 06:45 24.85775 111.32008 34099 ft 388 kts 302°
2026-04-15 06:45 24.88565 111.26913 34099 ft 388 kts 302°
2026-04-15 06:46 24.91355 111.21813 34099 ft 388 kts 302°
2026-04-15 06:46 24.94142 111.16712 34099 ft 388 kts 302°
2026-04-15 06:47 24.96927 111.11611 34099 ft 388 kts 302°
2026-04-15 06:47 24.99709 111.06507 34098 ft 388 kts 302°
2026-04-15 06:48 25.02492 111.01397 34099 ft 388 kts 302°
2026-04-15 06:48 25.05268 110.96295 34099 ft 388 kts 302°
2026-04-15 06:49 25.08032 110.91210 34099 ft 388 kts 302°
2026-04-15 06:49 25.10809 110.86095 34099 ft 388 kts 302°
2026-04-15 06:50 25.14964 110.78430 34099 ft 387 kts 302°
2026-04-15 06:50 25.17715 110.73349 34099 ft 388 kts 302°
2026-04-15 06:51 25.20477 110.68241 34099 ft 388 kts 302°
2026-04-15 06:51 25.23241 110.63126 34099 ft 388 kts 302°
2026-04-15 06:52 25.26002 110.58008 34099 ft 388 kts 302°
2026-04-15 06:52 25.28762 110.52887 34099 ft 388 kts 302°
2026-04-15 06:53 25.31519 110.47767 34099 ft 388 kts 302°
2026-04-15 06:53 25.34277 110.42639 34099 ft 388 kts 302°
2026-04-15 06:54 25.37016 110.37541 34099 ft 388 kts 302°
2026-04-15 06:54 25.39767 110.32414 34099 ft 388 kts 302°
2026-04-15 06:55 25.42523 110.27273 34099 ft 388 kts 302°
2026-04-15 06:55 25.45274 110.22137 34099 ft 388 kts 302°
2026-04-15 06:56 25.48002 110.17037 34099 ft 388 kts 302°
2026-04-15 06:56 25.50752 110.11893 34099 ft 387 kts 302°
2026-04-15 06:57 25.53493 110.06754 34099 ft 387 kts 302°
2026-04-15 06:57 25.56233 110.01613 34099 ft 387 kts 302°
2026-04-15 06:58 25.58976 109.96462 34099 ft 388 kts 302°
2026-04-15 06:58 25.61714 109.91314 34099 ft 387 kts 302°
2026-04-15 06:59 25.64435 109.86195 34099 ft 387 kts 301°
2026-04-15 06:59 25.67170 109.81042 34099 ft 387 kts 301°
2026-04-15 07:00 25.69889 109.75911 34099 ft 387 kts 301°
2026-04-15 07:00 25.72621 109.70753 34099 ft 387 kts 301°
2026-04-15 07:01 25.75348 109.65601 34099 ft 387 kts 301°
2026-04-15 07:01 25.77995 109.60396 34096 ft 388 kts 294°
2026-04-15 07:02 25.79536 109.54619 34099 ft 391 kts 288°
2026-04-15 07:02 25.80985 109.48804 34099 ft 390 kts 288°
2026-04-15 07:03 25.82472 109.43011 34098 ft 389 kts 289°
2026-04-15 07:03 25.83966 109.37267 34099 ft 389 kts 288°
2026-04-15 07:04 25.85475 109.31493 34099 ft 389 kts 288°
2026-04-15 07:04 25.86983 109.25721 34098 ft 389 kts 288°
2026-04-15 07:05 25.88493 109.19956 34098 ft 388 kts 288°
2026-04-15 07:05 25.90000 109.14198 34099 ft 388 kts 288°
2026-04-15 07:06 25.91502 109.08438 34099 ft 388 kts 288°
2026-04-15 07:06 25.92996 109.02702 34098 ft 388 kts 288°
2026-04-15 07:07 25.94518 108.96940 34098 ft 388 kts 288°
2026-04-15 07:07 25.96047 108.91194 34099 ft 387 kts 288°
2026-04-15 07:08 25.97571 108.85448 34099 ft 388 kts 288°
2026-04-15 07:08 25.99082 108.79737 34099 ft 388 kts 288°
2026-04-15 07:09 26.00615 108.73953 34098 ft 387 kts 287°
2026-04-15 07:09 26.02129 108.68254 34099 ft 387 kts 287°
2026-04-15 07:10 26.03651 108.62516 34099 ft 387 kts 287°
2026-04-15 07:10 26.05173 108.56775 34099 ft 387 kts 287°
2026-04-15 07:11 26.06696 108.51026 34099 ft 387 kts 287°
2026-04-15 07:11 26.08217 108.45270 34098 ft 387 kts 287°
2026-04-15 07:12 26.09757 108.39565 34097 ft 387 kts 291°
2026-04-15 07:12 26.12027 108.34140 34099 ft 387 kts 295°
2026-04-15 07:13 26.14395 108.28763 34099 ft 387 kts 295°
2026-04-15 07:13 26.16740 108.23371 34099 ft 387 kts 296°
2026-04-15 07:14 26.19085 108.17971 34099 ft 387 kts 296°
2026-04-15 07:14 26.21421 108.12575 34099 ft 387 kts 296°
2026-04-15 07:15 26.23756 108.07173 34099 ft 387 kts 296°
2026-04-15 07:15 26.26069 108.01803 34099 ft 387 kts 296°
2026-04-15 07:16 26.28401 107.96394 34099 ft 387 kts 296°
2026-04-15 07:16 26.30733 107.90981 34099 ft 387 kts 296°
2026-04-15 07:17 26.33059 107.85569 34099 ft 387 kts 296°
2026-04-15 07:17 26.35380 107.80156 34099 ft 387 kts 296°
2026-04-15 07:18 26.37305 107.75650 34099 ft 387 kts 297°
2026-04-15 07:18 26.40008 107.69336 34099 ft 387 kts 297°
2026-04-15 07:19 26.42326 107.63917 34099 ft 387 kts 297°
2026-04-15 07:19 26.44253 107.59404 34099 ft 387 kts 297°
2026-04-15 07:20 26.46568 107.53973 34098 ft 388 kts 297°
2026-04-15 07:20 26.48867 107.48523 34099 ft 388 kts 297°
2026-04-15 07:21 26.51159 107.43070 34099 ft 388 kts 297°
2026-04-15 07:21 26.53459 107.37619 34099 ft 388 kts 297°
2026-04-15 07:22 26.55759 107.32160 34099 ft 388 kts 297°
2026-04-15 07:22 26.58052 107.26736 34099 ft 388 kts 297°
2026-04-15 07:23 26.60361 107.21282 34099 ft 388 kts 297°
2026-04-15 07:23 26.62667 107.15826 34099 ft 388 kts 297°
2026-04-15 07:24 26.64977 107.10372 34099 ft 388 kts 297°
2026-04-15 07:24 26.67296 107.04914 34099 ft 388 kts 297°
2026-04-15 07:25 26.69615 106.99458 34099 ft 388 kts 297°
2026-04-15 07:25 26.71915 106.94038 34099 ft 388 kts 297°
2026-04-15 07:26 26.74232 106.88574 34099 ft 388 kts 297°
2026-04-15 07:26 26.76543 106.83117 34099 ft 388 kts 297°
2026-04-15 07:27 26.79280 106.77945 34098 ft 386 kts 309°
2026-04-15 07:27 26.83122 106.73736 34099 ft 387 kts 317°
2026-04-15 07:28 26.87168 106.69756 34099 ft 387 kts 317°
2026-04-15 07:28 26.91226 106.65772 34099 ft 387 kts 317°
2026-04-15 07:29 26.95253 106.61821 34099 ft 387 kts 317°
2026-04-15 07:29 26.99313 106.57838 34099 ft 387 kts 317°
2026-04-15 07:30 27.03367 106.53857 34099 ft 387 kts 317°
2026-04-15 07:30 27.07419 106.49875 34099 ft 387 kts 317°
2026-04-15 07:31 27.11472 106.45890 34099 ft 387 kts 317°
2026-04-15 07:31 27.15497 106.41927 34099 ft 387 kts 317°
2026-04-15 07:32 27.19548 106.37936 34099 ft 387 kts 317°
2026-04-15 07:32 27.23616 106.33957 34099 ft 387 kts 317°
2026-04-15 07:33 27.27688 106.29992 34099 ft 387 kts 317°
2026-04-15 07:33 27.31760 106.26026 34099 ft 387 kts 317°
2026-04-15 07:34 27.35833 106.22056 34099 ft 387 kts 317°
2026-04-15 07:34 27.39887 106.18104 34099 ft 387 kts 317°
2026-04-15 07:35 27.43967 106.14123 34099 ft 388 kts 317°
2026-04-15 07:35 27.48043 106.10140 34099 ft 387 kts 317°
2026-04-15 07:36 27.52097 106.06175 34099 ft 387 kts 317°
2026-04-15 07:36 27.56169 106.02188 34099 ft 387 kts 317°
2026-04-15 07:37 27.60240 105.98200 34099 ft 387 kts 317°
2026-04-15 07:37 27.64317 105.94200 34099 ft 388 kts 317°
2026-04-15 07:38 27.68371 105.90221 34099 ft 388 kts 317°
2026-04-15 07:38 27.72203 105.85956 34098 ft 386 kts 306°
2026-04-15 07:39 27.74495 105.80519 34100 ft 390 kts 290°
2026-04-15 07:39 27.76145 105.74685 34099 ft 390 kts 290°
2026-04-15 07:40 27.77789 105.68844 34098 ft 390 kts 290°
2026-04-15 07:40 27.79426 105.63007 34099 ft 390 kts 290°
2026-04-15 07:41 27.81387 105.57353 34099 ft 388 kts 296°
2026-04-15 07:41 27.83575 105.51783 34099 ft 388 kts 296°
2026-04-15 07:42 27.85753 105.46200 34099 ft 388 kts 295°
2026-04-15 07:42 27.87921 105.40617 34099 ft 388 kts 295°
2026-04-15 07:43 27.90247 105.35109 34099 ft 387 kts 298°
2026-04-15 07:43 27.92686 105.29674 34099 ft 387 kts 298°
2026-04-15 07:44 27.95103 105.24270 34099 ft 387 kts 298°
2026-04-15 07:44 27.97694 105.18944 34097 ft 386 kts 306°
2026-04-15 07:45 28.01657 105.14841 34100 ft 391 kts 324°
2026-04-15 07:45 28.06278 105.11577 34099 ft 391 kts 324°
2026-04-15 07:46 28.10901 105.08330 34099 ft 391 kts 325°
2026-04-15 07:46 28.15511 105.05109 34099 ft 393 kts 324°
2026-04-15 07:47 28.20168 105.01851 34098 ft 392 kts 324°
2026-04-15 07:47 28.24816 104.98594 34098 ft 391 kts 324°
2026-04-15 07:48 28.29431 104.95348 34099 ft 390 kts 325°
2026-04-15 07:48 28.34014 104.92127 34099 ft 388 kts 326°
2026-04-15 07:49 28.38619 104.88897 34099 ft 389 kts 326°
2026-04-15 07:49 28.43233 104.85670 34098 ft 390 kts 325°
2026-04-15 07:50 28.47855 104.82440 34099 ft 390 kts 325°
2026-04-15 07:50 28.52465 104.79210 34099 ft 389 kts 326°
2026-04-15 07:51 28.57043 104.76005 34099 ft 389 kts 326°
2026-04-15 07:51 28.61653 104.72776 34099 ft 389 kts 326°
2026-04-15 07:52 28.66268 104.69540 34099 ft 389 kts 326°
2026-04-15 07:52 28.70872 104.66308 34099 ft 389 kts 326°
2026-04-15 07:53 28.75481 104.63070 34099 ft 389 kts 326°
2026-04-15 07:53 28.80058 104.59850 34099 ft 389 kts 326°
2026-04-15 07:54 28.84663 104.56607 34099 ft 389 kts 326°
2026-04-15 07:54 28.89254 104.53336 34099 ft 389 kts 325°
2026-04-15 07:55 28.93845 104.50061 34099 ft 389 kts 325°
2026-04-15 07:56 29.00728 104.45153 34099 ft 389 kts 325°
2026-04-15 07:56 29.05317 104.41879 34099 ft 389 kts 325°
2026-04-15 07:57 29.09908 104.38602 34099 ft 389 kts 325°
2026-04-15 07:57 29.14466 104.35344 34099 ft 389 kts 325°
2026-04-15 07:58 29.19052 104.32063 34099 ft 389 kts 325°
2026-04-15 07:58 29.23635 104.28783 34098 ft 389 kts 326°
2026-04-15 07:58 29.26073 104.27418 34096 ft 394 kts 337°
2026-04-15 07:59 29.28786 104.26797 34098 ft 404 kts 351°
2026-04-15 07:59 29.34472 104.27447 34100 ft 414 kts
2026-04-15 08:00 29.40174 104.28405 34099 ft 414 kts
2026-04-15 08:00 29.45872 104.29366 34099 ft 414 kts
2026-04-15 08:01 29.51573 104.30330 34099 ft 414 kts
2026-04-15 08:01 29.57273 104.31296 34099 ft 414 kts
2026-04-15 08:02 29.62927 104.32257 34099 ft 414 kts
2026-04-15 08:02 29.68621 104.33226 34099 ft 414 kts
2026-04-15 08:03 29.74320 104.34197 34099 ft 414 kts
2026-04-15 08:03 29.80018 104.35169 34099 ft 414 kts
2026-04-15 08:04 29.85724 104.36144 34099 ft 414 kts
2026-04-15 08:04 29.91424 104.37119 34099 ft 414 kts
2026-04-15 08:05 29.97087 104.38089 34099 ft 414 kts
2026-04-15 08:05 30.02782 104.39065 34099 ft 414 kts
2026-04-15 08:06 30.08493 104.40045 34099 ft 414 kts
2026-04-15 08:06 30.14157 104.41019 34099 ft 414 kts
2026-04-15 08:07 30.19848 104.42014 34099 ft 414 kts
2026-04-15 08:07 30.25543 104.43010 34099 ft 414 kts
2026-04-15 08:08 30.30316 104.43844 34099 ft 414 kts
2026-04-15 08:08 30.35968 104.44831 34099 ft 414 kts
2026-04-15 08:09 30.41669 104.45828 34099 ft 414 kts
2026-04-15 08:09 30.47365 104.46825 34099 ft 414 kts
2026-04-15 08:10 30.53066 104.47823 34099 ft 414 kts
2026-04-15 08:10 30.58725 104.48621 34098 ft 407 kts 354°
2026-04-15 08:11 30.64227 104.47726 34099 ft 395 kts 338°
2026-04-15 08:11 30.69459 104.45771 34099 ft 394 kts 337°
2026-04-15 08:12 30.74679 104.43786 34099 ft 394 kts 337°
2026-04-15 08:12 30.79891 104.41796 34099 ft 394 kts 337°
2026-04-15 08:13 30.85105 104.39886 34098 ft 396 kts 341°
2026-04-15 08:13 30.90613 104.38960 34099 ft 405 kts 351°
2026-04-15 08:14 30.96269 104.38780 34099 ft 405 kts 352°
2026-04-15 08:14 31.01922 104.38624 34099 ft 405 kts 352°
2026-04-15 08:15 31.07565 104.38470 34099 ft 405 kts 352°
2026-04-15 08:15 31.13180 104.38319 34098 ft 405 kts 352°
2026-04-15 08:16 31.18833 104.38167 34099 ft 405 kts 352°
2026-04-15 08:16 31.24452 104.38017 34099 ft 405 kts 352°
2026-04-15 08:17 31.30079 104.37725 34099 ft 404 kts 351°
2026-04-15 08:17 31.35695 104.37388 34099 ft 404 kts 351°
2026-04-15 08:18 31.41288 104.37057 34099 ft 404 kts 351°
2026-04-15 08:18 31.46911 104.36727 34099 ft 404 kts 351°
2026-04-15 08:19 31.52537 104.36397 34099 ft 404 kts 351°
2026-04-15 08:19 31.58162 104.36068 34099 ft 404 kts 351°
2026-04-15 08:20 31.63777 104.35739 34099 ft 404 kts 351°
2026-04-15 08:20 31.69397 104.35410 34099 ft 404 kts 351°
2026-04-15 08:21 31.75017 104.35080 34099 ft 404 kts 351°
2026-04-15 08:21 31.80614 104.34774 34099 ft 404 kts 351°
2026-04-15 08:22 31.86233 104.34488 34099 ft 404 kts 351°
2026-04-15 08:22 31.91880 104.34199 33805 ft 406 kts 351°
2026-04-15 08:22 31.94699 104.34056 33555 ft 407 kts 351°
2026-04-15 08:23 31.97545 104.33909 33305 ft 410 kts 351°
2026-04-15 08:23 32.00402 104.33762 33054 ft 412 kts 351°
2026-04-15 08:23 32.03238 104.33617 32807 ft 413 kts 351°
2026-04-15 08:23 32.06116 104.33470 32556 ft 414 kts 351°
2026-04-15 08:24 32.08994 104.33322 32305 ft 415 kts 351°
2026-04-15 08:24 32.11881 104.33174 32055 ft 416 kts 351°
2026-04-15 08:24 32.14777 104.33025 31804 ft 417 kts 351°
2026-04-15 08:24 32.17679 104.32876 31554 ft 418 kts 351°
2026-04-15 08:25 32.20585 104.32726 31303 ft 419 kts 351°
2026-04-15 08:25 32.23502 104.32576 31053 ft 420 kts 351°
2026-04-15 08:25 32.26420 104.32425 30803 ft 421 kts 351°
2026-04-15 08:25 32.29352 104.32274 30552 ft 422 kts 351°
2026-04-15 08:26 32.32286 104.32122 30302 ft 423 kts 351°
2026-04-15 08:26 32.35231 104.31970 30153 ft 423 kts 351°
2026-04-15 08:26 32.38186 104.31817 30113 ft 425 kts 351°
2026-04-15 08:27 32.44079 104.31519 30099 ft 426 kts 351°
2026-04-15 08:27 32.50003 104.31234 30099 ft 427 kts 351°
2026-04-15 08:28 32.55938 104.30949 30099 ft 427 kts 351°
2026-04-15 08:28 32.61884 104.30663 30099 ft 427 kts 351°
2026-04-15 08:29 32.67782 104.30380 30099 ft 427 kts 351°
2026-04-15 08:29 32.73722 104.30094 30099 ft 427 kts 351°
2026-04-15 08:30 32.79655 104.29808 30099 ft 427 kts 351°
2026-04-15 08:30 32.85593 104.29522 30099 ft 427 kts 351°
2026-04-15 08:31 32.91529 104.29235 30099 ft 427 kts 351°
2026-04-15 08:31 32.97438 104.28949 30099 ft 427 kts 351°
2026-04-15 08:32 33.03374 104.28661 30099 ft 427 kts 351°
2026-04-15 08:32 33.09309 104.28373 30099 ft 427 kts 351°
2026-04-15 08:33 33.15245 104.28085 30099 ft 427 kts 351°
2026-04-15 08:33 33.21182 104.27796 30099 ft 427 kts 351°
2026-04-15 08:34 33.27121 104.27507 30099 ft 427 kts 351°
2026-04-15 08:34 33.32999 104.27094 30098 ft 422 kts 345°
2026-04-15 08:35 33.38503 104.25078 30099 ft 409 kts 329°
2026-04-15 08:35 33.43465 104.21788 30099 ft 407 kts 326°
2026-04-15 08:36 33.48407 104.18439 30099 ft 407 kts 326°
2026-04-15 08:36 33.53338 104.15087 30099 ft 407 kts 326°
2026-04-15 08:37 33.58418 104.12124 30098 ft 414 kts 337°
2026-04-15 08:37 33.64225 104.11213 30100 ft 428 kts 353°
2026-04-15 08:38 33.70197 104.11202 30099 ft 429 kts 353°
2026-04-15 08:38 33.76169 104.11202 30099 ft 431 kts 353°
2026-04-15 08:39 33.82210 104.11204 30098 ft 433 kts 353°
2026-04-15 08:39 33.88200 104.11203 30099 ft 433 kts 353°
2026-04-15 08:40 33.94238 104.11201 30099 ft 434 kts 352°
2026-04-15 08:40 34.00271 104.11200 30099 ft 433 kts 352°
2026-04-15 08:41 34.06302 104.11198 30099 ft 433 kts 352°
2026-04-15 08:41 34.12334 104.11197 30098 ft 432 kts 353°
2026-04-15 08:42 34.18360 104.11196 30099 ft 432 kts 353°
2026-04-15 08:42 34.24336 104.11195 30099 ft 432 kts 353°
2026-04-15 08:43 34.30352 104.11194 30098 ft 430 kts 353°
2026-04-15 08:43 34.36330 104.11193 30099 ft 429 kts 353°
2026-04-15 08:44 34.42301 104.11192 30099 ft 429 kts 353°
2026-04-15 08:44 34.48280 104.11192 30099 ft 429 kts 353°
2026-04-15 08:45 34.54209 104.11193 30099 ft 429 kts 353°
2026-04-15 08:45 34.60167 104.11193 30099 ft 428 kts 353°
2026-04-15 08:46 34.66133 104.11193 30098 ft 428 kts 353°
2026-04-15 08:46 34.69124 104.11193 29788 ft 430 kts 353°
2026-04-15 08:46 34.72101 104.11195 29413 ft 427 kts 353°
2026-04-15 08:46 34.75084 104.11196 29037 ft 429 kts 353°
2026-04-15 08:47 34.78077 104.11195 28661 ft 430 kts 353°
2026-04-15 08:47 34.81078 104.11195 28285 ft 432 kts 353°
2026-04-15 08:47 34.84048 104.11195 27915 ft 433 kts 353°
2026-04-15 08:47 34.87067 104.11194 27540 ft 435 kts 352°
2026-04-15 08:48 34.90110 104.11194 27163 ft 437 kts 352°
2026-04-15 08:48 34.93157 104.11193 26788 ft 438 kts 352°
2026-04-15 08:48 34.96213 104.11193 26412 ft 440 kts 352°
2026-04-15 08:48 34.99278 104.11193 26037 ft 442 kts 352°
2026-04-15 08:49 35.02365 104.11193 25661 ft 443 kts 352°
2026-04-15 08:49 35.05456 104.11192 25285 ft 445 kts 352°
2026-04-15 08:49 35.08565 104.11192 24909 ft 447 kts 352°
2026-04-15 08:49 35.11683 104.11189 24534 ft 450 kts 352°
2026-04-15 08:50 35.14831 104.11182 24158 ft 453 kts 353°
2026-04-15 08:50 35.17998 104.11175 23801 ft 456 kts 353°
2026-04-15 08:50 35.21140 104.11170 23688 ft 457 kts 353°
2026-04-15 08:50 35.24250 104.11177 23631 ft 434 kts 353°
2026-04-15 08:51 35.27181 104.11194 23605 ft 409 kts 353°
2026-04-15 08:51 35.29970 104.11208 23600 ft 394 kts 352°
2026-04-15 08:51 35.32708 104.11208 23599 ft 394 kts 352°
2026-04-15 08:51 35.35450 104.11204 23599 ft 394 kts 352°
2026-04-15 08:52 35.38196 104.11200 23599 ft 394 kts 352°
2026-04-15 08:52 35.40930 104.11199 23598 ft 393 kts 352°
2026-04-15 08:52 35.43631 104.11198 23599 ft 393 kts 352°
2026-04-15 08:52 35.46367 104.11197 23599 ft 393 kts 352°
2026-04-15 08:53 35.49104 104.11196 23599 ft 393 kts 352°
2026-04-15 08:53 35.51841 104.11201 23599 ft 393 kts 352°
2026-04-15 08:53 35.54575 104.11212 23599 ft 393 kts 353°
2026-04-15 08:53 35.57312 104.11224 23599 ft 393 kts 353°
2026-04-15 08:54 35.60059 104.11236 23599 ft 393 kts 353°
2026-04-15 08:54 35.62759 104.11247 23599 ft 393 kts 353°
2026-04-15 08:54 35.65498 104.11259 23599 ft 393 kts 353°
2026-04-15 08:54 35.68239 104.11271 23564 ft 393 kts 353°
2026-04-15 08:55 35.70945 104.11286 23249 ft 382 kts 353°
2026-04-15 08:55 35.72703 104.11294 22909 ft 377 kts 353°
2026-04-15 08:55 35.75309 104.11301 22350 ft 372 kts 353°
2026-04-15 08:55 35.78722 104.11304 21573 ft 368 kts 353°
2026-04-15 08:56 35.80413 104.11173 21061 ft 364 kts 346°
2026-04-15 08:56 35.83501 104.09666 19961 ft 355 kts 321°
2026-04-15 08:56 35.85237 104.07556 19323 ft 349 kts 308°
2026-04-15 08:56 35.86251 104.06018 18980 ft 346 kts 307°
2026-04-15 08:57 35.87735 104.03701 18476 ft 341 kts 306°
2026-04-15 08:57 35.89190 104.01408 17972 ft 337 kts 307°
2026-04-15 08:57 35.90622 103.99145 17464 ft 333 kts 307°
2026-04-15 08:57 35.92042 103.96901 16955 ft 329 kts 307°
2026-04-15 08:58 35.93444 103.94676 16447 ft 326 kts 308°
2026-04-15 08:58 35.96201 103.90317 15444 ft 322 kts 309°
2026-04-15 08:58 35.97570 103.88141 14933 ft 320 kts 308°
2026-04-15 08:59 35.98761 103.85832 14446 ft 319 kts 300°
2026-04-15 08:59 35.99602 103.83295 13966 ft 320 kts 290°
2026-04-15 08:59 36.00153 103.80647 13652 ft 314 kts 287°
2026-04-15 08:59 36.00647 103.78073 13502 ft 301 kts 287°
2026-04-15 09:00 36.01121 103.75582 13217 ft 295 kts 287°
2026-04-15 09:00 36.01586 103.73128 12857 ft 291 kts 287°
2026-04-15 09:00 36.02174 103.70755 12370 ft 288 kts 299°
2026-04-15 09:00 36.03336 103.68844 12001 ft 275 kts 322°
2026-04-15 09:01 36.04962 103.67765 11752 ft 260 kts 348°
2026-04-15 09:01 36.06701 103.67473 11576 ft 247 kts 356°
2026-04-15 09:01 36.08394 103.67316 11310 ft 241 kts 358°
2026-04-15 09:01 36.10056 103.67183 10978 ft 237 kts 359°
2026-04-15 09:02 36.11679 103.67062 10610 ft 235 kts 359°
2026-04-15 09:02 36.13322 103.66948 10209 ft 233 kts 360°
2026-04-15 09:02 36.14922 103.66842 9789 ft 233 kts
2026-04-15 09:02 36.16537 103.66751 9410 ft 230 kts 359°
2026-04-15 09:03 36.18105 103.66667 9133 ft 221 kts 357°
2026-04-15 09:03 36.19603 103.66569 8968 ft 209 kts 357°
2026-04-15 09:03 36.21041 103.66474 8913 ft 205 kts 357°
2026-04-15 09:03 36.22444 103.66383 8903 ft 205 kts 357°
2026-04-15 09:04 36.23873 103.66294 8901 ft 205 kts 357°
2026-04-15 09:04 36.25300 103.66207 8900 ft 205 kts 357°
2026-04-15 09:04 36.26726 103.66121 8900 ft 205 kts 357°
2026-04-15 09:04 36.28151 103.66035 8900 ft 205 kts 357°
2026-04-15 09:05 36.29578 103.65949 8900 ft 205 kts 357°
2026-04-15 09:05 36.31004 103.65863 8900 ft 205 kts 357°
2026-04-15 09:05 36.32431 103.65776 8900 ft 205 kts 357°
2026-04-15 09:05 36.33858 103.65688 8900 ft 205 kts 357°
2026-04-15 09:06 36.35284 103.65599 8900 ft 205 kts 357°
2026-04-15 09:06 36.36687 103.65511 8884 ft 193 kts 357°
2026-04-15 09:06 36.37988 103.65429 8825 ft 187 kts 357°
2026-04-15 09:06 36.39253 103.65349 8580 ft 182 kts 357°
2026-04-15 09:07 36.40470 103.65272 8321 ft 166 kts 357°
2026-04-15 09:07 36.41563 103.65203 8104 ft 152 kts 357°
2026-04-15 09:07 36.42629 103.65136 7919 ft 152 kts 357°
2026-04-15 09:07 36.43681 103.65069 7726 ft 151 kts 357°
2026-04-15 09:08 36.44731 103.65003 7520 ft 150 kts 357°
2026-04-15 09:08 36.45779 103.64937 7323 ft 150 kts 357°
2026-04-15 09:08 36.46819 103.64871 7122 ft 150 kts 357°
2026-04-15 09:08 36.47858 103.64805 6925 ft 149 kts 357°
2026-04-15 09:09 36.48893 103.64739 6730 ft 149 kts 357°
2026-04-15 09:09 36.49929 103.64671 6536 ft 148 kts 357°
2026-04-15 09:09 36.50941 103.64605 6410 ft 134 kts 357°
2026-04-15 09:09 36.51700 103.64559 6408 ft 84 kts 358°
2026-04-15 09:10 36.52113 103.64536 6408 ft 41 kts 357°
2026-04-15 09:10 36.52354 103.64521 6408 ft 25 kts 355°
2026-04-15 09:10 36.52493 103.64441 6408 ft 22 kts 330°
2026-04-15 09:10 36.52623 103.64349 6408 ft 21 kts 330°
2026-04-15 09:11 36.52761 103.64294 6408 ft 21 kts 359°
2026-04-15 09:11 36.52899 103.64286 6408 ft 19 kts 357°
2026-04-15 09:11 36.53032 103.64278 6408 ft 19 kts 357°
2026-04-15 09:11 36.53162 103.64268 6408 ft 18 kts 356°
2026-04-15 09:12 36.53224 103.64230 6408 ft 9 kts 274°
2026-04-15 09:12 36.53222 103.64151 6408 ft 9 kts 266°
2026-04-15 09:12 36.53218 103.64070 6408 ft 12 kts 266°
2026-04-15 09:12 36.53212 103.63931 6408 ft 20 kts 267°
2026-04-15 09:13 36.53203 103.63718 6408 ft 29 kts 267°
2026-04-15 09:13 36.53195 103.63491 6408 ft 26 kts 267°
2026-04-15 09:13 36.53186 103.63266 6408 ft 26 kts 267°
2026-04-15 09:13 36.53178 103.63045 6408 ft 25 kts 267°
2026-04-15 09:14 36.53170 103.62842 6408 ft 22 kts 267°
2026-04-15 09:14 36.53163 103.62703 6408 ft 12 kts 255°
2026-04-15 09:14 36.53094 103.62675 6408 ft 12 kts 177°
2026-04-15 09:14 36.53003 103.62680 6408 ft 14 kts 177°
2026-04-15 09:15 36.52892 103.62687 6408 ft 18 kts 177°
2026-04-15 09:15 36.52764 103.62695 6408 ft 18 kts 177°
2026-04-15 09:15 36.52639 103.62703 6408 ft 18 kts 177°
2026-04-15 09:15 36.52516 103.62710 6408 ft 18 kts 177°
2026-04-15 09:16 36.52395 103.62718 6408 ft 17 kts 177°
2026-04-15 09:16 36.52278 103.62726 6408 ft 17 kts 177°
2026-04-15 09:16 36.52169 103.62732 6408 ft 14 kts 177°
2026-04-15 09:16 36.52097 103.62756 6408 ft 11 kts 111°
2026-04-15 09:17 36.52091 103.62832 6408 ft 8 kts 109°
2026-04-15 09:17 36.52060 103.62885 6408 ft 6 kts 127°
2026-04-15 09:17 36.52037 103.62924 6408 ft 2 kts 127°
2026-04-15 09:17 36.52036 103.62925 6408 ft 0 kts 127°